Morrisville, VT

7:06 PM EDT on June 27, 2017 (GMT -0400)
Morrisville Stowe State

Weather History for KMVL - December, 2013

Change the Weather History Date:

Saturday, December 21, 2013

  Actual Average Record
Temperature  
Mean Temperature 32 °F 21 °F  
Max Temperature 35 °F 30 °F 46 °F (2012)
Min Temperature 29 °F 11 °F -17 °F (2004)
Degree Days  
Heating Degree Days 33 44  
Month to date heating degree days 913 851  
Since 1 July heating degree days 2696 2679  
Cooling Degree Days 0 0  
Month to date cooling degree days 0 0  
Year to date cooling degree days 401 265  
Moisture  
Dew Point 30 °F    
Average Humidity 91    
Maximum Humidity 96    
Minimum Humidity 85    
Precipitation  
Precipitation 0.46 in 0.09 in 0.61 in (2012)
Month to date precipitation 1.62 1.89  
Year to date precipitation 40.39 35.25  
Sea Level Pressure  
Sea Level Pressure 29.85 in    
Wind  
Wind Speed 2 mph (NNE)    
Max Wind Speed 8 mph    
Max Gust Speed 12 mph    
Visibility 3 miles    
Events Rain    
T = Trace of Precipitation, MM = Missing Value Source: NWS Daily Summary

Daily Weather History Graph

Daily Weather History Graph

Search for Another Location

Airport or City:

Trip Planner

Search our weather history database for the weather conditions in past years. The results will help you decide how hot, cold, wet, or windy it might be!

Date:

Astronomy

Dec. 21, 2013 Rise Set
Actual Time 7:23 AM EST 4:13 PM EST
Civil Twilight 6:50 AM EST 4:46 PM EST
Nautical Twilight 6:13 AM EST 5:23 PM EST
Astronomical Twilight 5:38 AM EST 5:59 PM EST
Moon 8:36 PM EST (12/21) 9:40 AM EST (12/21)
Length of Visible Light 9h 56m
Length of Day
8h 49m
Waning Gibbous, 84% of the Moon is Illuminated
Dec 21
Waning Gibbous
Dec 25
Last Quarter
Jan 1
New
Jan 7
First Quarter
Jan 15
Full

Hourly Weather History & Observations

Time (EST) Temp. Windchill Dew Point Humidity Pressure Visibility Wind Dir Wind Speed Gust Speed Precip Events Conditions
12:08 AM 28.4 °F 24.6 °F 26.6 °F 93% 29.86 in 3.0 mi NNE 3.5 mph - 0.00 in Rain Light Freezing Rain
12:23 AM 28.4 °F - 26.6 °F 93% 29.86 in 4.0 mi Calm Calm - 0.00 in   Overcast
12:30 AM 30.2 °F - 28.4 °F 93% 29.84 in 4.0 mi Calm Calm - 0.00 in   Overcast
12:54 AM 30.0 °F - 28.0 °F 92% 29.86 in 3.0 mi Calm Calm - 0.02 in   Overcast
1:54 AM 30.9 °F 24.3 °F 28.0 °F 89% 29.88 in 4.0 mi North 6.9 mph - 0.00 in   Overcast
2:12 AM 30.2 °F - 28.4 °F 93% 29.84 in 4.0 mi Calm Calm - N/A   Overcast
2:22 AM 30.2 °F - 28.4 °F 93% 29.84 in 4.0 mi Calm Calm - N/A   Overcast
2:54 AM 30.0 °F - 27.0 °F 88% 29.86 in 4.0 mi Calm Calm - N/A   Overcast
3:06 AM 30.2 °F - 28.4 °F 93% 29.82 in 4.0 mi Calm Calm - N/A   Overcast
3:54 AM 30.0 °F - 28.0 °F 92% 29.84 in 4.0 mi Calm Calm - 0.00 in   Overcast
4:08 AM 30.2 °F - 28.4 °F 93% 29.80 in 4.0 mi Calm Calm - 0.01 in   Overcast
4:54 AM 30.9 °F - 28.9 °F 92% 29.83 in 3.0 mi Calm Calm - 0.01 in   Overcast
5:28 AM 30.2 °F - 28.4 °F 93% 29.80 in 2.5 mi Calm Calm - 0.00 in   Overcast
5:54 AM 30.9 °F - 28.9 °F 92% 29.82 in 3.0 mi Calm Calm - 0.00 in   Overcast
6:54 AM 30.9 °F - 28.9 °F 92% 29.81 in 3.0 mi Calm Calm - N/A   Partly Cloudy
7:10 AM 30.2 °F - 28.4 °F 93% 29.78 in 2.5 mi Calm Calm - N/A   Clear
7:35 AM 30.2 °F - 28.4 °F 93% 29.77 in 3.0 mi Calm Calm - N/A   Clear
7:42 AM 30.2 °F - 28.4 °F 93% 29.78 in 2.0 mi Calm Calm - N/A   Partly Cloudy
7:49 AM 30.2 °F - 28.4 °F 93% 29.78 in 1.8 mi Calm Calm - N/A   Scattered Clouds
7:54 AM 32.0 °F - 28.9 °F 88% 29.81 in 2.0 mi Calm Calm - N/A   Scattered Clouds
8:07 AM 32.0 °F - 30.2 °F 93% 29.78 in 1.8 mi Calm Calm - N/A   Mostly Cloudy
8:34 AM 32.0 °F - 30.2 °F 93% 29.79 in 2.0 mi Calm Calm - N/A   Overcast
8:54 AM 32.0 °F - 30.9 °F 96% 29.81 in 2.0 mi Calm Calm - N/A   Overcast
9:02 AM 33.8 °F 29.6 °F 30.2 °F 87% 29.78 in 1.5 mi SSE 4.6 mph - N/A   Overcast
9:24 AM 33.8 °F - 32.0 °F 93% 29.79 in 2.5 mi Calm Calm - N/A   Overcast
9:51 AM 33.8 °F 29.6 °F 30.2 °F 87% 29.80 in 1.5 mi North 4.6 mph - N/A   Overcast
9:54 AM 33.1 °F 28.7 °F 30.9 °F 92% 29.83 in 1.5 mi North 4.6 mph - N/A   Overcast
10:54 AM 34.0 °F 31.0 °F 32.0 °F 92% 29.82 in 1.5 mi North 3.5 mph - N/A   Overcast
11:12 AM 33.8 °F 29.6 °F 32.0 °F 93% 29.78 in 1.2 mi North 4.6 mph - N/A   Overcast
11:23 AM 33.8 °F 30.8 °F 32.0 °F 93% 29.79 in 1.0 mi NNE 3.5 mph - 0.00 in Rain Light Rain
11:28 AM 33.8 °F 29.6 °F 32.0 °F 93% 29.79 in 1.2 mi North 4.6 mph - 0.00 in Rain Light Rain
11:47 AM 33.8 °F - 33.8 °F 100% 29.78 in 1.0 mi Calm Calm - 0.00 in Rain Light Rain
11:54 AM 34.0 °F 31.0 °F 33.1 °F 96% 29.81 in 1.2 mi North 3.5 mph - 0.00 in Rain Light Rain
12:14 PM 33.8 °F - 32.0 °F 93% 29.78 in 1.2 mi Calm Calm - 0.02 in Rain Light Rain
12:32 PM 33.8 °F - 33.8 °F 100% 29.78 in 1.0 mi Calm Calm - 0.04 in Rain Rain
12:39 PM 33.8 °F - 33.8 °F 100% 29.77 in 0.8 mi Calm Calm - 0.05 in Rain Light Rain
12:54 PM 35.1 °F - 33.1 °F 92% 29.80 in 1.0 mi Calm Calm - 0.05 in Rain Light Rain
1:12 PM 33.8 °F - 32.0 °F 93% 29.79 in 0.8 mi Calm Calm - 0.03 in Rain Light Rain
1:20 PM 35.6 °F 30.7 °F 33.8 °F 93% 29.81 in 1.0 mi North 5.8 mph - 0.04 in Rain Rain
1:28 PM 35.6 °F - 32.0 °F 87% 29.82 in 1.0 mi Calm Calm - 0.05 in Rain Light Rain
1:42 PM 35.6 °F 29.2 °F 33.8 °F 93% 29.82 in 1.5 mi NNE 8.1 mph - 0.06 in Rain Light Rain
1:51 PM 35.6 °F 29.9 °F 33.8 °F 93% 29.82 in 2.5 mi NNE 6.9 mph - 0.06 in Rain Light Rain
1:54 PM 35.1 °F 29.3 °F 33.1 °F 92% 29.85 in 3.0 mi North 6.9 mph - 0.06 in Rain Light Rain
2:25 PM 33.8 °F 30.8 °F 32.0 °F 93% 29.82 in 2.5 mi NNE 3.5 mph - 0.02 in Rain Light Rain
2:54 PM 34.0 °F 29.8 °F 32.0 °F 92% 29.86 in 3.0 mi NNE 4.6 mph - 0.04 in Rain Light Rain
3:01 PM 33.8 °F 30.8 °F 32.0 °F 93% 29.84 in 3.0 mi NNE 3.5 mph - 0.01 in Rain Light Rain
3:47 PM 33.8 °F 30.8 °F 30.2 °F 87% 29.86 in 2.5 mi North 3.5 mph - 0.05 in Rain Rain
3:54 PM 33.1 °F 30.0 °F 30.9 °F 92% 29.89 in 2.5 mi NNE 3.5 mph - 0.06 in Rain Light Rain
4:05 PM 33.8 °F 29.6 °F 30.2 °F 87% 29.86 in 4.0 mi NNE 4.6 mph - 0.01 in Rain Light Rain
4:18 PM 33.8 °F 30.8 °F 30.2 °F 87% 29.87 in 4.0 mi North 3.5 mph - 0.03 in Rain Light Rain
4:30 PM 33.8 °F 30.8 °F 30.2 °F 87% 29.87 in 4.0 mi NE 3.5 mph - 0.05 in Rain Rain
4:42 PM 33.8 °F - 32.0 °F 93% 29.87 in 5.0 mi Calm Calm - 0.06 in Rain Light Rain
4:54 PM 33.1 °F - 32.0 °F 96% 29.90 in 5.0 mi Calm Calm - 0.07 in Rain Light Rain
5:26 PM 33.8 °F - 30.2 °F 87% 29.88 in 6.0 mi Calm Calm - 0.01 in Rain Light Rain
5:54 PM 33.1 °F - 32.0 °F 96% 29.92 in 6.0 mi Calm Calm - 0.01 in Rain Light Rain
6:37 PM 33.8 °F - 30.2 °F 87% 29.91 in 10.0 mi Calm Calm - 0.00 in   Overcast
6:54 PM 33.1 °F 30.0 °F 30.9 °F 92% 29.95 in 4.0 mi NE 3.5 mph - 0.00 in Rain Light Rain
7:54 PM 30.9 °F - 30.0 °F 96% 29.97 in 3.0 mi Calm Calm - 0.01 in Rain Light Freezing Rain
8:01 PM 30.2 °F 26.7 °F 30.2 °F 100% 29.94 in 2.0 mi NNE 3.5 mph - 0.01 in Rain Light Freezing Rain
8:20 PM 30.2 °F 25.4 °F 30.2 °F 100% 29.93 in 4.0 mi NNE 4.6 mph - 0.01 in Rain Light Freezing Rain
8:54 PM 30.0 °F 24.1 °F 28.0 °F 92% 29.95 in 5.0 mi NNE 5.8 mph - 0.01 in Rain Light Freezing Rain
9:07 PM 30.2 °F 25.4 °F 28.4 °F 93% 29.93 in 5.0 mi North 4.6 mph - 0.00 in   Overcast
9:40 PM 30.2 °F 26.7 °F 28.4 °F 93% 29.93 in 4.0 mi North 3.5 mph - 0.01 in Rain Light Freezing Rain
9:54 PM 30.0 °F 25.2 °F 28.0 °F 92% 29.96 in 4.0 mi North 4.6 mph - 0.01 in Rain Light Freezing Rain
10:17 PM 30.2 °F 24.3 °F 28.4 °F 93% 29.93 in 4.0 mi North 5.8 mph - 0.01 in Rain Light Freezing Rain
10:54 PM 30.0 °F 25.2 °F 28.0 °F 92% 29.96 in 5.0 mi North 4.6 mph - 0.04 in Rain Light Freezing Rain
11:05 PM 28.4 °F 22.2 °F 26.6 °F 93% 29.93 in 5.0 mi North 5.8 mph - 0.00 in Rain Light Freezing Rain
11:29 PM 28.4 °F 22.2 °F 26.6 °F 93% 29.94 in 3.0 mi North 5.8 mph - 0.02 in Rain Light Freezing Rain
11:40 PM 30.2 °F 24.3 °F 28.4 °F 93% 29.94 in 3.0 mi North 5.8 mph - 0.04 in Rain Light Freezing Rain
11:50 PM 28.4 °F 22.2 °F 28.4 °F 100% 29.93 in 4.0 mi NNE 5.8 mph - 0.06 in Rain Light Freezing Rain
11:54 PM 28.9 °F 22.8 °F 27.0 °F 92% 29.96 in 4.0 mi NE 5.8 mph - 0.06 in Rain Light Freezing Rain